Flag for Brazil Weather past 2 weeks in Manaus, Amazonas, Brazil

Now
84 °F

Clear.


Feels Like: 91 °F
Forecast: 77 / 93 °F
Wind: 3 mph from East

Location: Manaus Aeroporto

Current Time: Sep 2, 2014 at 8:56:26 PM

Latest Report: Sep 2, 2014 at 8:00 PM


Visibility: 10 mi

Pressure: 29.83 "Hg

Humidity: 70%

Dew point: 73 °F

Location of ManausLocation

Historic Weather in Manaus — Graph

°F

Manaus temperature yesterday

Maximum temperature yesterday: 91 °F (at 3:00 PM)
Minimum temperature yesterday: 73 °F (at 6:00 AM)
Average temperature yesterday: 81 °F

Past Weeks' High & Low Weather Summary

 TemperatureHumidityPressure
High93 °F (Aug 20, 2:00 PM)100% (Aug 31, 6:00 PM)30.04 "Hg (Aug 31, 6:00 PM)
Low63 °F (Aug 31, 6:00 PM)34% (Aug 20, 1:00 PM)29.74 "Hg (Aug 24, 5:00 PM)
Average83 °F71%29.89 "Hg
* Reported Aug 18 8:00 PM — Sep 2 8:00 PM, Manaus, Weather by CustomWeather, © 2014

Note: Actual official high and low records may vary slightly from our data, if they occured in-between our weather recording intervals... More about our weather records

Advertising

Manaus weather history for previous 24 hours

 ConditionsComfort  
Time TempWeatherWind HumidityBarometerVisibility
8:00 PM
Sep 2
84 °FClear.3 mph70%29.83 "Hg10 mi
7:00 PM84 °FPassing clouds.3 mph70%29.83 "HgN/A
6:00 PM86 °FPassing clouds.2 mph66%29.80 "HgN/A
5:00 PM90 °FPassing clouds.5 mph55%29.80 "HgN/A
4:00 PM91 °FScattered clouds.6 mph52%29.80 "HgN/A
3:00 PM91 °FScattered clouds.6 mph52%29.80 "HgN/A
2:00 PM91 °FScattered clouds.5 mph52%29.83 "HgN/A
1:00 PM91 °FScattered clouds.6 mph56%29.86 "HgN/A
12:00 PM91 °FScattered clouds.8 mph56%29.89 "HgN/A
11:00 AM91 °FScattered clouds.8 mph52%29.92 "HgN/A
10:00 AM88 °FPassing clouds.6 mph62%29.92 "HgN/A
9:00 AM88 °FSunny.6 mph59%29.92 "Hg10 mi
8:00 AM84 °FSunny.3 mph70%29.92 "Hg10 mi
7:00 AM79 °FSunny.5 mph79%29.89 "Hg10 mi
6:00 AM75 °FSunny.3 mph89%29.89 "Hg10 mi
5:00 AM75 °FClear.3 mph89%29.86 "Hg10 mi
4:00 AM75 °FClear.3 mph89%29.86 "Hg10 mi
3:00 AM77 °FClear.3 mph83%29.86 "Hg10 mi
2:00 AM77 °FClear.3 mph83%29.86 "Hg10 mi
1:00 AM79 °FClear.3 mph79%29.89 "Hg10 mi
12:00 AM79 °FClear.6 mph79%29.92 "Hg10 mi
11:00 PM
Sep 1
79 °FClear.5 mph79%29.92 "Hg10 mi
10:00 PM77 °FClear.3 mph83%29.92 "Hg10 mi
9:00 PM79 °FClear.3 mph79%29.89 "Hg10 mi
8:00 PM79 °FClear.No wind79%29.86 "Hg10 mi
Weather by CustomWeather, © 2014

See weather overviewHow to use our weather pages